Location: *
(50.9167°S, 179.4000°W)
Time: 18:29:12
(UTC+00:00)

COSMOS 2428 - Pass Details

Date: 20 June 2024
Orbit: 843 x 857 km, 70.9° (Epoch: 18 July)

Event Time Altitude Azimuth Distance (km) Brightness Sun altitude
Exits shadow 19:00:27 - 206° (SSW) 3,104 5.2 -9.0°
Reaches altitude 10° 19:02:43 10° 190° (S) 2,525 4.8 -8.7°
Maximum altitude 19:06:18 16° 152° (SSE) 2,095 4.8 -8.2°
Drops below altitude 10° 19:09:52 10° 114° (ESE) 2,510 5.7 -7.7°
Sets 19:13:20 0° 92° (E) 3,437 7.0 -7.2°
